Weather History for Gulf Shores, AL

Change the Weather History Date:

Thursday, May 23, 2013

  Actual Average (KPNS) Record (KPNS)
Temperature  
Mean Temperature 76 °F 76 °F  
Max Temperature 87 °F 85 °F 98 °F (1996)
Min Temperature 64 °F 68 °F 47 °F (1883)
Cooling Degree Days 10 11  
Month to date cooling degree days 198  
Year to date cooling degree days 346  
Growing Degree Days 26 (Base 50)    
Moisture  
Dew Point 65 °F    
Average Humidity 69    
Maximum Humidity 94    
Minimum Humidity 29    
Precipitation  
Precipitation 0.00 in 0.14 in 2.39 in (1979)
Month to date precipitation 3.04  
Year to date precipitation 22.86  
Sea Level Pressure  
Sea Level Pressure 30.01 in    
Wind  
Wind Speed 3 mph (West)    
Max Wind Speed 14 mph    
Max Gust Speed -    
Visibility 9 miles    
Events Fog    
T = Trace of Precipitation, MM = Missing Value Source: NWS Daily Summary

Daily Weather History Graph

Daily Weather History Graph

Search for Another Location

Airport:

Trip Planner

Search our weather history database for the weather conditions in past years. The results will help you decide how hot, cold, wet, or windy it might be!

Date:

Astronomy

May. 23, 2013 Rise Set
Actual Time 5:52 AM CDT 7:42 PM CDT
Civil Twilight 5:25 AM CDT 8:09 PM CDT
Nautical Twilight 4:53 AM CDT 8:41 PM CDT
Astronomical Twilight 4:19 AM CDT 9:16 PM CDT
Moon 6:19 PM CDT (5/23) 4:29 AM CDT (5/23)
Length of Visible Light 14h 44m
Length of Day
13h 50m
Waxing Gibbous, 97% of the Moon is Illuminated
May 23
Waxing Gibbous
May 24
Full
May 31
Last Quarter
Jun 8
New
Jun 16
First Quarter

Hourly Weather History & Observations

Time (CDT) Temp. Heat Index Dew Point Humidity Pressure Visibility Wind Dir Wind Speed Gust Speed Precip Events Conditions
12:15 AM 68.0 °F - 64.4 °F 88% 29.97 in 0.8 mi Calm Calm - N/A   Mist
12:35 AM 66.2 °F - 64.4 °F 94% 29.97 in 1.0 mi Calm Calm - N/A   Mist
12:55 AM 68.0 °F - 64.4 °F 88% 29.97 in 7.0 mi Calm Calm - N/A   Clear
1:15 AM 68.0 °F - 66.2 °F 94% 29.97 in 10.0 mi Calm Calm - N/A   Clear
1:35 AM 68.0 °F - 64.4 °F 88% 29.96 in 10.0 mi Calm Calm - N/A   Clear
1:55 AM 68.0 °F - 64.4 °F 88% 29.96 in 5.0 mi Calm Calm - N/A   Clear
2:15 AM 64.4 °F - 62.6 °F 94% 29.96 in 10.0 mi Calm Calm - N/A   Clear
2:35 AM 66.2 °F - 62.6 °F 88% 29.96 in 2.5 mi Calm Calm - N/A   Clear
2:55 AM 68.0 °F - 64.4 °F 88% 29.97 in 10.0 mi Calm Calm - N/A   Clear
3:15 AM 66.2 °F - 62.6 °F 88% 29.97 in 10.0 mi Calm Calm - N/A   Scattered Clouds
3:35 AM 66.2 °F - 62.6 °F 88% 29.97 in 4.0 mi Calm Calm - N/A   Scattered Clouds
3:55 AM 68.0 °F - 64.4 °F 88% 29.97 in 4.0 mi Calm Calm - N/A   Scattered Clouds
4:15 AM 66.2 °F - 64.4 °F 94% 29.98 in 0.5 mi Calm Calm - N/A Fog Fog
4:35 AM 68.0 °F - 64.4 °F 88% 29.98 in 0.2 mi Calm Calm - N/A Fog Fog
4:55 AM 66.2 °F - 62.6 °F 88% 29.99 in 0.5 mi Calm Calm - N/A Fog Fog
5:15 AM 66.2 °F - 62.6 °F 88% 29.99 in 1.8 mi Calm Calm - N/A   Scattered Clouds
5:35 AM 64.4 °F - 62.6 °F 94% 30.00 in 1.0 mi Calm Calm - N/A   Scattered Clouds
5:55 AM 64.4 °F - 62.6 °F 94% 30.01 in 7.0 mi Calm Calm - N/A   Clear
6:15 AM 66.2 °F - 64.4 °F 94% 30.02 in 7.0 mi Calm Calm - N/A   Clear
6:35 AM 68.0 °F - 64.4 °F 88% 30.02 in 7.0 mi Calm Calm - N/A   Clear
6:55 AM 69.8 °F - 66.2 °F 88% 30.03 in 10.0 mi Calm Calm - N/A   Clear
7:15 AM 71.6 °F - 69.8 °F 94% 30.04 in 10.0 mi Calm Calm - N/A   Clear
7:35 AM 73.4 °F - 68.0 °F 83% 30.04 in 10.0 mi Calm Calm - N/A   Clear
7:55 AM 75.2 °F - 68.0 °F 78% 30.05 in 10.0 mi NNW 3.5 mph - N/A   Clear
8:15 AM 77.0 °F - 69.8 °F 78% 30.05 in 10.0 mi NW 5.8 mph - N/A   Clear
8:35 AM 78.8 °F - 68.0 °F 69% 30.05 in 10.0 mi NW 6.9 mph - N/A   Clear
8:55 AM 78.8 °F - 68.0 °F 69% 30.05 in 10.0 mi NW 5.8 mph - N/A   Scattered Clouds
9:15 AM 80.6 °F 82.7 °F 66.2 °F 61% 30.06 in 10.0 mi NW 5.8 mph - N/A   Scattered Clouds
9:35 AM 80.6 °F 82.7 °F 66.2 °F 61% 30.05 in 10.0 mi NNW 6.9 mph - N/A   Clear
9:55 AM 80.6 °F 82.3 °F 64.4 °F 58% 30.05 in 10.0 mi WNW 4.6 mph - N/A   Scattered Clouds
10:15 AM 82.4 °F 83.9 °F 64.4 °F 54% 30.05 in 10.0 mi North 5.8 mph - N/A   Scattered Clouds
10:35 AM 82.4 °F 83.4 °F 62.6 °F 51% 30.05 in 10.0 mi WNW 4.6 mph - N/A   Scattered Clouds
10:55 AM 82.4 °F 83.4 °F 62.6 °F 51% 30.05 in 10.0 mi NW 4.6 mph - N/A   Scattered Clouds
11:15 AM 84.2 °F 85.0 °F 62.6 °F 48% 30.05 in 10.0 mi NW 3.5 mph - N/A   Scattered Clouds
11:35 AM 82.4 °F 83.4 °F 62.6 °F 51% 30.04 in 10.0 mi Calm Calm - N/A   Scattered Clouds
11:55 AM 86.0 °F 86.1 °F 60.8 °F 43% 30.03 in 10.0 mi North 3.5 mph - N/A   Scattered Clouds
12:15 PM 84.2 °F 84.4 °F 60.8 °F 45% 30.03 in 10.0 mi West 4.6 mph - N/A   Scattered Clouds
12:35 PM 86.0 °F 87.3 °F 64.4 °F 48% 30.03 in 10.0 mi WSW 5.8 mph - N/A   Scattered Clouds
12:55 PM 86.0 °F 87.3 °F 64.4 °F 48% 30.03 in 10.0 mi West 9.2 mph - N/A   Clear
1:15 PM 86.0 °F 87.3 °F 64.4 °F 48% 30.03 in 10.0 mi WSW 9.2 mph - N/A   Clear
1:35 PM 86.0 °F 87.3 °F 64.4 °F 48% 30.03 in 10.0 mi North - - N/A   Clear
1:55 PM 86.0 °F 87.3 °F 64.4 °F 48% 30.02 in 10.0 mi West 13.8 mph - N/A   Clear
2:15 PM 86.0 °F 86.6 °F 62.6 °F 45% 30.02 in 10.0 mi WSW 12.7 mph - N/A   Clear
2:35 PM 86.0 °F 86.1 °F 60.8 °F 43% 30.02 in 10.0 mi West 10.4 mph - N/A   Clear
2:55 PM 86.0 °F 86.1 °F 60.8 °F 43% 30.02 in 10.0 mi North - - N/A   Clear
3:15 PM 86.0 °F 85.4 °F 59.0 °F 40% 30.01 in 10.0 mi WSW 11.5 mph - N/A   Clear
3:35 PM 87.8 °F - 51.8 °F 29% 30.00 in 10.0 mi WSW 11.5 mph - N/A   Clear
3:55 PM 87.8 °F 85.7 °F 53.6 °F 31% 30.00 in 10.0 mi North - - N/A   Clear
4:15 PM 86.0 °F 84.5 °F 55.4 °F 35% 30.00 in 10.0 mi West 11.5 mph - N/A   Clear
4:35 PM 86.0 °F 84.9 °F 57.2 °F 37% 29.99 in 10.0 mi WSW 11.5 mph - N/A   Clear
4:55 PM 86.0 °F 87.3 °F 64.4 °F 48% 30.00 in 10.0 mi West 10.4 mph - N/A   Clear
5:15 PM 84.2 °F 85.0 °F 62.6 °F 48% 29.99 in 10.0 mi West 10.4 mph - N/A   Clear
5:35 PM 84.2 °F 85.0 °F 62.6 °F 48% 29.99 in 10.0 mi West 11.5 mph - N/A   Clear
5:55 PM 82.4 °F 83.4 °F 62.6 °F 51% 29.99 in 10.0 mi West 10.4 mph - N/A   Clear
6:15 PM 82.4 °F 83.4 °F 62.6 °F 51% 29.99 in 10.0 mi West 10.4 mph - N/A   Clear
6:35 PM 82.4 °F 83.4 °F 62.6 °F 51% 29.99 in 10.0 mi West 10.4 mph - N/A   Clear
6:55 PM 80.6 °F 82.7 °F 66.2 °F 61% 29.99 in 10.0 mi West 8.1 mph - N/A   Clear
7:15 PM 80.6 °F 83.2 °F 68.0 °F 65% 29.99 in 10.0 mi WSW 5.8 mph - N/A   Clear
7:35 PM 78.8 °F - 68.0 °F 69% 30.00 in 10.0 mi WSW 6.9 mph - N/A   Clear
7:55 PM 77.0 °F - 68.0 °F 74% 30.01 in 10.0 mi West 8.1 mph - N/A   Clear
8:15 PM 77.0 °F - 68.0 °F 74% 30.01 in 10.0 mi West 5.8 mph - N/A   Clear
8:35 PM 75.2 °F - 68.0 °F 78% 30.01 in 10.0 mi WSW 5.8 mph - N/A   Clear
8:55 PM 75.2 °F - 69.8 °F 83% 30.02 in 10.0 mi West 4.6 mph - N/A   Clear
9:15 PM 75.2 °F - 69.8 °F 83% 30.03 in 10.0 mi West 4.6 mph - N/A   Clear
9:35 PM 75.2 °F - 69.8 °F 83% 30.03 in 10.0 mi WSW 5.8 mph - N/A   Clear
9:55 PM 75.2 °F - 69.8 °F 83% 30.04 in 10.0 mi West 5.8 mph - N/A   Clear
10:15 PM 75.2 °F - 69.8 °F 83% 30.04 in 10.0 mi West 5.8 mph - N/A   Clear
10:35 PM 77.0 °F - 69.8 °F 78% 30.04 in 10.0 mi West 4.6 mph - N/A   Clear
10:55 PM 77.0 °F - 69.8 °F 78% 30.04 in 10.0 mi West 4.6 mph - N/A   Clear
11:15 PM 75.2 °F - 69.8 °F 83% 30.04 in 10.0 mi West 5.8 mph - N/A   Clear
11:35 PM 77.0 °F - 69.8 °F 78% 30.04 in 10.0 mi West 4.6 mph - N/A   Clear
11:55 PM 75.2 °F - 69.8 °F 83% 30.04 in 10.0 mi West 4.6 mph - N/A   Clear